Hourly Data Report for July 26, 2021

TORONTO CITY
ONTARIO
Current Station Operator: ECCC - MSC

43°40'00.000" N
79°24'00.000" W
112.50 m
6158355
71508
XTO

Download Data

Hourly Data (July 2021)
Hourly Data Report for July 26, 2021
TIME
LST
Temp Definition
°C
Dew Point Definition
°C
Rel Hum Definition
%
Precip. Amount Definition
mm

Wind Dir Definition
10's deg

Wind Spd Definition
km/h
Visibility Definition
km
Stn Press Definition
kPa
Hmdx Definition


Wind Chill Definition


Weather Definition


00:00 20.7 14.2 66 0.0       99.92     LegendNANA
01:00 20.9 14.1 65 0.0       99.93     LegendNANA
02:00 20.5 14.3 68 0.0       99.91     LegendNANA
03:00 20.2 13.9 67 0.0       99.90     LegendNANA
04:00 19.6 14.0 70 0.0       99.90     LegendNANA
05:00 19.2 14.5 74 0.0       99.95     LegendNANA
06:00 18.5 14.7 79 0.0       99.96     LegendNANA
07:00 20.8 15.4 71 0.0       100.00 25   LegendNANA
08:00 24.5 15.7 58 0.0       100.04 29   LegendNANA
09:00 26.5 14.8 49 0.0       100.03 30   LegendNANA
10:00 27.6 14.9 46 0.0       100.01 32   LegendNANA
11:00 28.6 16.2 47 0.0       99.99 33   LegendNANA
12:00 27.1 15.5 49 0.0       99.99 31   LegendNANA
13:00 27.3 15.5 48 0.0       99.97 32   LegendNANA
14:00 28.3 15.8 47 0.0       99.94 33   LegendNANA
15:00 27.8 16.5 50 0.0       99.94 33   LegendNANA
16:00 28.2 16.8 50 0.0       99.93 33   LegendNANA
17:00 26.8 18.4 60 0.0       99.92 33   LegendNANA
18:00 27.9 18.6 57 0.0       99.90 34   LegendNANA
19:00 28.6 14.3 42 0.0       99.92 32   LegendNANA
20:00 26.6 15.0 49 0.0       99.96 31   LegendNANA
21:00 24.9 15.0 54 0.0       100.03 29   LegendNANA
22:00 23.1 14.9 60 0.0       100.04 27   LegendNANA
23:00 22.0 15.4 66 0.0       100.09 26   LegendNANA

Notes on Data Quality.

Legend

  • E = Estimated
  • M = Missing
  • NA = Not Available*
  • [empty] = Indicates an unobserved value
Date modified: